Torna al catalogo

NINGXIA-1 3

AttivoScienzaLEO
NORAD 44781·PAYLOAD·🇨🇳 China

Lanciato Nov 13, 2019 da Taiyuan Satellite Launch Center

Loading…

Prossimi Passaggi (prossime 24 ore)

TLE

AggiornatoSource: Space-Track

Epoca: Sep 14, 2026, 15:37 UTC

1 44781U 19076C   26257.65078235 -.00000055  00000-0  48519-4 0  9997
2 44781  45.0000 138.5602 0009958 211.5694 148.4543 14.02012291350413

Traccia NINGXIA-1 3 in tempo reale con AllMySat

Download on the App Store